Lid_Strength_Index
7 6 7 6 6 6 6 6 5 5 5 5 5 5 5 5 5 4 3 2 5 5 3 2 3 4 4 5 8 5 6 5 6 9 9 11 11 10 11 10 11 10 11 14 11 13 14 7 8 11 8 6 6 6
7 6 6 6 6 6 6 6 6 5 5 5 5 5 4 4 4 3 3 0 -0 4 3 0 1 1 2 2 4 4 6 6 5 8 8 8 10 8 9 13 8 12 10 12 13 13 8 6 6 5 4 5 5 6
7 7 7 6 6 6 6 6 6 6 5 5 5 4 3 3 2 2 1 -1 0 2 3 2 3 1 1 2 1 6 4 4 5 4 7 8 9 7 11 9 8 7 6 9 9 8 7 6 6 4 4 4 4 3
7 7 7 7 6 6 6 6 6 6 5 5 4 3 3 2 1 1 0 -1 1 3 6 4 0 2 1 1 2 2 3 2 4 4 7 8 10 5 9 7 8 6 5 7 7 7 6 6 5 4 4 3 3 3
7 7 7 6 6 6 6 6 5 5 5 4 3 2 2 1 -0 -1 -2 -2 0 3 7 6 2 1 2 2 2 3 4 5 7 8 8 8 6 7 6 6 9 5 7 8 10 6 7 6 4 4 4 4 4 4
7 7 7 6 6 6 6 5 5 4 3 3 2 1 1 -0 -1 -1 3 -0 -1 0 6 8 3 2 2 2 3 4 4 6 9 8 7 6 4 7 10 9 6 6 4 4 6 4 5 5 4 4 4 4 4 4
7 7 7 6 6 6 5 5 4 3 2 2 1 1 0 -1 -2 1 3 1 1 0 6 9 6 2 1 3 3 3 5 7 8 8 8 7 7 7 9 11 8 5 4 5 4 4 6 5 6 5 3 3 3 3
7 7 7 6 6 5 5 4 2 2 2 1 1 1 -1 -1 -0 1 -1 -0 -0 2 4 7 7 5 2 5 6 3 6 7 8 8 7 9 8 8 11 9 9 7 6 6 5 4 5 5 4 5 4 4 4 5
7 7 7 6 6 5 4 3 2 2 1 0 1 -0 -1 -0 1 1 1 1 -0 3 6 6 9 11 3 6 5 5 6 9 8 8 8 9 10 12 9 8 7 6 6 6 5 4 5 5 5 5 5 6 6 6
7 7 6 6 5 4 3 2 2 1 0 -0 -0 1 2 1 1 0 1 3 3 2 3 6 5 9 7 7 7 7 6 9 11 9 7 10 11 6 4 4 4 5 4 4 5 6 6 6 6 7 7 7 7 7
7 7 6 5 4 3 2 2 1 1 -0 -0 1 2 -0 -0 0 2 5 5 4 7 5 5 5 8 5 9 8 6 9 8 11 9 10 11 12 7 5 4 3 3 4 5 4 4 4 5 6 7 6 6 5 5
7 6 5 4 3 2 2 2 1 -0 -1 0 0 -1 -0 1 3 6 7 5 7 9 5 7 7 6 6 4 7 6 9 7 12 6 10 13 9 5 4 5 4 3 2 2 2 4 4 3 3 4 4 4 4 3
7 5 4 3 2 2 2 1 0 0 -1 -1 1 3 3 3 10 9 11 8 9 7 6 7 8 6 5 4 7 8 9 10 4 9 13 10 7 5 5 4 4 3 3 3 3 2 2 3 3 3 3 3 3 3
5 3 3 2 2 2 1 1 0 -1 -0 2 4 10 6 8 8 8 9 8 7 7 7 6 7 7 5 7 6 10 7 7 12 14 13 8 6 5 4 3 3 3 3 3 3 2 2 3 2 2 2 2 3 3
3 3 2 2 2 2 1 0 -0 -2 1 4 4 10 7 5 5 6 6 7 6 5 5 6 6 6 7 8 6 8 10 12 12 13 9 6 5 4 4 4 3 3 3 3 2 2 2 2 2 2 1 1 2 2
3 3 2 2 2 1 0 -1 -2 -2 -0 3 4 6 5 6 7 6 7 7 4 4 4 5 8 8 8 8 9 11 12 14 11 8 6 5 5 4 3 3 3 2 2 2 2 2 2 2 2 2 1 1 1 1
3 1 3 2 2 1 0 -1 -1 2 2 5 5 4 5 7 7 7 6 6 3 5 7 7 9 10 7 9 11 9 11 9 7 6 4 4 4 3 3 2 2 2 2 2 2 2 2 1 1 2 2 2 1 1
1 1 2 2 1 -1 -2 -1 1 3 5 4 6 5 5 5 6 5 4 3 4 5 5 7 5 10 11 13 12 9 6 5 5 4 4 3 3 2 2 2 2 2 2 2 2 2 2 2 2 2 2 1 1 2
2 2 2 2 1 -0 1 1 1 5 4 4 4 3 3 4 3 3 2 2 2 2 4 6 9 10 10 8 8 6 6 5 5 4 3 2 2 2 2 2 2 2 2 2 2 2 2 1 1 1 1 1 2 2
2 3 2 1 0 -0 4 2 -0 4 5 4 3 4 3 4 3 3 3 3 3 5 7 8 8 7 6 5 4 4 3 3 3 4 4 3 2 1 2 2 2 1 1 1 2 3 2 2 1 1 1 1 2 2
4 1 1 -0 -1 -1 1 2 3 3 3 5 3 3 4 3 4 4 4 3 5 7 7 5 5 4 3 2 2 2 2 2 3 3 4 4 2 3 3 3 2 2 2 2 2 2 3 2 1 1 1 1 1 1
0 2 -1 -1 0 1 1 0 3 2 3 4 3 2 5 6 6 5 3 6 6 5 4 4 3 3 2 2 2 2 1 1 2 3 4 3 3 3 3 3 3 3 3 3 2 2 1 1 1 0 0 1 2 1
2 1 -0 0 4 4 5 0 4 3 6 5 3 5 6 5 4 2 5 5 4 2 2 2 2 1 2 1 1 2 2 2 2 1 2 2 2 2 2 2 2 3 3 3 2 2 1 4 2 1 0 2 0 1
5 2 4 3 3 5 2 4 2 3 4 5 6 8 6 5 3 4 7 5 4 2 2 2 2 2 2 1 2 2 2 1 2 2 2 3 3 3 2 3 2 2 3 2 2 2 1 1 3 1 2 4 4 3
6 6 5 9 3 5 6 6 6 5 7 6 7 7 6 3 7 7 7 5 4 3 2 2 2 2 3 2 2 1 1 2 2 3 3 2 3 3 3 3 3 2 2 2 2 2 2 1 2 1 0 0 1 2
9 5 7 5 4 5 5 7 7 7 6 7 6 3 3 6 8 8 6 4 3 2 1 2 2 2 2 2 2 2 2 1 2 3 3 2 3 3 4 4 4 4 2 2 2 3 2 2 1 1 1 2 6 2
8 7 3 1 2 3 5 3 3 4 7 7 5 6 5 9 9 6 3 2 2 1 0 1 1 2 2 2 1 1 1 0 1 1 1 1 2 2 3 4 4 4 2 2 3 3 3 3 2 2 1 2 2 1
4 4 6 4 4 2 6 5 6 7 5 3 4 7 8 8 8 2 2 1 1 -0 0 0 0 0 0 0 0 0 0 0 1 1 1 1 1 2 2 2 2 8 3 2 3 3 2 2 1 1 2 2 2 1
4 2 3 5 5 4 5 5 4 3 2 2 4 5 6 2 1 1 1 1 0 1 1 1 1 0 0 -0 -0 -0 -0 1 3 4 4 4 4 3 3 3 2 2 2 2 7 6 3 3 2 2 2 2 2 1
5 2 4 6 6 6 3 2 3 1 0 1 1 2 2 2 1 -1 -0 1 2 2 1 1 1 0 1 1 1 1 0 1 2 3 4 4 4 3 3 3 3 2 2 2 2 2 6 4 3 1 2 2 2 2
2 2 5 4 5 3 2 1 1 1 2 2 2 3 3 2 1 -0 0 -0 0 0 1 1 1 1 1 2 2 2 3 1 2 2 2 3 2 3 3 3 2 2 2 3 3 2 2 2 2 3 4 4 4 4
4 5 5 7 5 2 1 3 3 3 3 4 4 3 2 3 4 1 -0 -0 1 1 5 3 2 2 1 1 1 1 8 1 2 2 3 3 4 4 4 3 2 2 2 3 3 3 3 3 3 3 3 3 4 4
5 4 4 4 4 5 3 3 5 5 4 4 4 3 3 4 6 1 -1 -2 -1 1 1 1 -0 0 1 1 1 1 5 2 5 9 9 10 11 9 6 4 3 3 3 3 3 3 4 4 5 5 5 5 5 5